TimeEDT,TemperatureF,Dew PointF,Humidity,Sea Level PressureIn,VisibilityMPH,Wind Direction,Wind SpeedMPH,Gust SpeedMPH,PrecipitationIn,Events,Conditions,WindDirDegrees,DateUTC
12:54 AM,73.0,71.1,93,30.06,7.0,Calm,Calm,-,N/A,,Clear,0,2013-07-07 04:54:00
1:54 AM,73.0,71.1,93,30.05,8.0,Calm,Calm,-,N/A,,Clear,0,2013-07-07 05:54:00
2:54 AM,73.0,71.1,93,30.04,8.0,Calm,Calm,-,N/A,,Clear,0,2013-07-07 06:54:00
3:54 AM,72.0,71.1,97,30.04,7.0,SSW,3.5,-,N/A,,Clear,210,2013-07-07 07:54:00
4:54 AM,71.1,70.0,96,30.04,7.0,Calm,Calm,-,N/A,,Clear,0,2013-07-07 08:54:00
5:54 AM,72.0,70.0,93,30.04,4.0,Calm,Calm,-,N/A,,Clear,0,2013-07-07 09:54:00
6:54 AM,75.0,73.0,94,30.04,7.0,Calm,Calm,-,N/A,,Clear,0,2013-07-07 10:54:00
7:54 AM,80.1,73.9,81,30.04,10.0,SSW,6.9,-,N/A,,Clear,200,2013-07-07 11:54:00
8:54 AM,82.0,73.9,76,30.04,10.0,SSW,4.6,-,N/A,,Clear,210,2013-07-07 12:54:00
9:54 AM,82.9,73.9,74,30.02,10.0,SSW,6.9,-,N/A,,Clear,200,2013-07-07 13:54:00
10:54 AM,87.1,75.0,67,30.01,10.0,SSW,5.8,-,N/A,,Clear,210,2013-07-07 14:54:00
11:54 AM,89.1,75.9,65,30.00,10.0,South,8.1,-,N/A,,Clear,190,2013-07-07 15:54:00
12:54 PM,91.0,75.0,59,29.99,10.0,SW,9.2,-,N/A,,Clear,220,2013-07-07 16:54:00
1:54 PM,91.0,73.9,57,29.97,10.0,SW,9.2,-,N/A,,Clear,220,2013-07-07 17:54:00
2:54 PM,81.0,73.9,79,29.97,7.0,West,12.7,-,0.07,Rain,Light Rain,260,2013-07-07 18:54:00
3:54 PM,78.1,73.0,84,29.96,10.0,West,4.6,-,0.03,,Partly Cloudy,280,2013-07-07 19:54:00
4:54 PM,84.9,75.0,72,29.94,10.0,NW,3.5,-,0.00,,Mostly Cloudy,320,2013-07-07 20:54:00
5:54 PM,86.0,77.0,74,29.92,10.0,Calm,Calm,-,N/A,,Scattered Clouds,0,2013-07-07 21:54:00
6:54 PM,87.1,77.0,72,29.92,10.0,SW,8.1,-,N/A,,Partly Cloudy,220,2013-07-07 22:54:00
7:54 PM,82.9,73.0,72,29.93,10.0,SW,6.9,-,N/A,,Scattered Clouds,230,2013-07-07 23:54:00
8:54 PM,81.0,72.0,74,29.94,10.0,WSW,3.5,-,N/A,,Partly Cloudy,250,2013-07-08 00:54:00
9:54 PM,78.1,68.0,71,29.95,10.0,SW,5.8,-,N/A,,Clear,230,2013-07-08 01:54:00
10:54 PM,77.0,66.0,69,29.96,10.0,SW,9.2,-,N/A,,Clear,230,2013-07-08 02:54:00
11:54 PM,73.9,66.0,76,29.97,10.0,SW,6.9,-,N/A,,Clear,230,2013-07-08 03:54:00